Tracking 32414 objects as of 4-Dec-2025
HD Live streaming from Space Station
objects crossing your sky now

COSMOS 2323 (GLONASS)

Track COSMOS 2323 (GLONASS) now!
COSMOS 2323 (GLONASS) is classified as:


NORAD ID: 23736
Int'l Code: 1995-068C
Perigee: 19,113.9 km
Apogee: 19,159.9 km
Inclination: 65.5 °
Period: 675.7 minutes
Semi major axis: 25507 km
RCS: 3.8825 m2 (large)
Launch date: December 14, 1995
Source: Commonwealth of Independent States (former USSR) (CIS)
Launch site: TYURATAM MISSILE AND SPACE COMPLEX (TTMTR)
Your satellite tracking list
Your tracking list is empty




NASA's NSSDC Master Catalog

Two Line Element Set (TLE):
1 23736U 95068C   25333.66634131  .00000066  00000-0  00000-0 0  9997
2 23736  65.4592 209.0785 0009014 185.1001 352.9860  2.13104024232956
Source of the keplerian elements: AFSPC